Millbury, Ohio, United States (43447)
Lat: 41.57N, Lon: 83.42W
Wx Zone: OHZ006
Local Info
Past Weather Observations for Today

NOTE: This archive is for the closest National Weather Service station to Millbury. Information may differ from the station used for current weather conditions.

Click here for Long-term Archive

Time Weather Temperature Dewpoint Humidity Pressure Winds Precip Visibility
19:53
Overcast
52°F / 11°C 45°F / 7°C 77% 30.01 in
(1016 mb)
E 4.6 mph
(E 7 kph)
- 7SM
18:53
Overcast
52°F / 11°C 45°F / 7°C 77% 30.01 in
(1016 mb)
ENE 5.8 mph
(ENE 9 kph)
- 7SM
17:53
Overcast
54°F / 12°C 45°F / 7°C 72% 30.01 in
(1016 mb)
ENE 4.6 mph
(ENE 7 kph)
- 8SM
17:02
Overcast
54°F / 12°C 45°F / 7°C 72% 30.01 in
(1016 mb)
NE 8.1 mph
(NE 13 kph)
- 10SM
16:53
Overcast
54°F / 12°C 45°F / 7°C 72% 30.01 in
(1016 mb)
NE 6.9 mph
(NE 11 kph)
- 9SM
15:53
Overcast
54°F / 12°C 45°F / 7°C 72% 30.01 in
(1016 mb)
NE 9.2 mph
(NE 15 kph)
- 10SM
14:53
Overcast
52°F / 11°C 45°F / 7°C 77% 30.04 in
(1017 mb)
NE 6.9 mph
(NE 11 kph)
- 10SM
14:43
Overcast
54°F / 12°C 45°F / 7°C 72% 30.04 in
(1017 mb)
NE 5.8 mph
(NE 9 kph)
- 10SM
13:53
Overcast
52°F / 11°C 46°F / 8°C 82% 30.04 in
(1017 mb)
Variable 6.9 mph
(Variable 11 kph)
- 10SM
13:41
Overcast
52°F / 11°C 45°F / 7°C 77% 30.04 in
(1017 mb)
ENE 8.1 mph
(ENE 13 kph)
- 10SM
13:21
Overcast
52°F / 11°C 45°F / 7°C 77% 30.04 in
(1017 mb)
ENE 6.9 mph
(ENE 11 kph)
- 10SM
13:04
Overcast
52°F / 11°C 45°F / 7°C 77% 30.04 in
(1017 mb)
ENE 8.1 mph
(ENE 13 kph)
- 10SM
12:53
Overcast
52°F / 11°C 45°F / 7°C 77% 30.04 in
(1017 mb)
ENE 9.2 mph
(ENE 15 kph)
- 10SM
12:34
Overcast
54°F / 12°C 46°F / 8°C 77% 30.04 in
(1017 mb)
ENE 6.9 mph
(ENE 11 kph)
- 10SM
11:53
Overcast
54°F / 12°C 45°F / 7°C 72% 30.04 in
(1017 mb)
NE 10.4 mph
(NE 17 kph)
- 10SM
11:13
Overcast
54°F / 12°C 45°F / 7°C 72% 30.04 in
(1017 mb)
ENE 6.9 mph
(ENE 11 kph)
- 10SM
10:53
Overcast
52°F / 11°C 45°F / 7°C 77% 30.01 in
(1016 mb)
ENE 8.1 mph
(ENE 13 kph)
- 10SM
09:53
Overcast
52°F / 11°C 45°F / 7°C 77% 30.04 in
(1017 mb)
NE 5.8 mph
(NE 9 kph)
- 10SM
09:07
Overcast
50°F / 10°C 46°F / 8°C 88% 30.04 in
(1017 mb)
NE 4.6 mph
(NE 7 kph)
- 10SM
08:53
Overcast
48°F / 9°C 45°F / 7°C 87% 30.04 in
(1017 mb)
NE 6.9 mph
(NE 11 kph)
- 9SM
07:53
Overcast
48°F / 9°C 45°F / 7°C 87% 30.01 in
(1016 mb)
NE 6.9 mph
(NE 11 kph)
- 10SM
07:24
Overcast
Fog And Mist
46°F / 8°C 45°F / 7°C 93% 30.01 in
(1016 mb)
ENE 5.8 mph
(ENE 9 kph)
- 4SM
06:53
Overcast
Fog And Mist
46°F / 8°C 45°F / 7°C 93% 30.01 in
(1016 mb)
NE 4.6 mph
(NE 7 kph)
- 2 1/2SM
06:23
Overcast
Fog And Mist
46°F / 8°C 45°F / 7°C 93% 30.01 in
(1016 mb)
NE 6.9 mph
(NE 11 kph)
- 2 1/2SM
05:53
Overcast
46°F / 8°C 45°F / 7°C 93% 29.98 in
(1015 mb)
NE 5.8 mph
(NE 9 kph)
- 9SM
04:53
Overcast
48°F / 9°C 45°F / 7°C 87% 29.95 in
(1014 mb)
ENE 5.8 mph
(ENE 9 kph)
- 10SM
03:53
Overcast
48°F / 9°C 46°F / 8°C 94% 29.95 in
(1014 mb)
NE 4.6 mph
(NE 7 kph)
- 10SM
03:27
Overcast
48°F / 9°C 46°F / 8°C 94% 29.95 in
(1014 mb)
Variable 3.5 mph
(Variable 6 kph)
- 10SM
02:53
Overcast
48°F / 9°C 46°F / 8°C 94% 29.95 in
(1014 mb)
ENE 5.8 mph
(ENE 9 kph)
0.00 in
(0.00 mm)
9SM
02:32
Overcast
48°F / 9°C 46°F / 8°C 94% 29.92 in
(1013 mb)
ENE 9.2 mph
(ENE 15 kph)
0.00 in
(0.00 mm)
8SM
02:00
Overcast
Light Rain
48°F / 9°C 46°F / 8°C 94% 29.95 in
(1014 mb)
NE 8.1 mph
(NE 13 kph)
0.00 in
(0.00 mm)
6SM
01:53
Overcast
Light Rain
48°F / 9°C 46°F / 8°C 94% 29.95 in
(1014 mb)
NE 6.9 mph
(NE 11 kph)
0.17 in
(4.32 mm)
4SM
01:30
Overcast
Rain
48°F / 9°C 46°F / 8°C 94% 29.95 in
(1014 mb)
NE 10.4 mph
(NE 17 kph)
0.11 in
(2.79 mm)
2 1/2SM
01:17
Overcast
Light Rain
50°F / 10°C 46°F / 8°C 88% 29.98 in
(1015 mb)
ENE 6.9 mph
(ENE 11 kph)
0.06 in
(1.52 mm)
3SM
00:53
Overcast
Rain
48°F / 9°C 46°F / 8°C 94% 29.98 in
(1015 mb)
NE 5.8 mph
(NE 9 kph)
0.17 in
(4.32 mm)
2SM
00:50
Overcast
Light Rain
48°F / 9°C 46°F / 8°C 94% 29.98 in
(1015 mb)
NE 8.1 mph
(NE 13 kph)
0.16 in
(4.06 mm)
2 1/2SM
00:41
Overcast
Light Rain
48°F / 9°C 46°F / 8°C 94% 29.98 in
(1015 mb)
NE 8.1 mph
(NE 13 kph)
0.13 in
(3.30 mm)
3SM
00:25
Overcast
Light Rain
48°F / 9°C 46°F / 8°C 94% 29.98 in
(1015 mb)
NE 6.9 mph
(NE 11 kph)
0.11 in
(2.79 mm)
2 1/2SM
00:18
Overcast
Light Rain
48°F / 9°C 46°F / 8°C 94% 29.98 in
(1015 mb)
NNE 6.9 mph
(NNE 11 kph)
0.10 in
(2.54 mm)
2SM
Time Weather Temperature Dewpoint Humidity Pressure Winds Precip Visibility


Weather for websites

WeatherForYou.com, LLC is not responsible for any damages or problems caused by this service. Current weather conditions are obtained from the closest station including government and personal stations which may have varying degrees of accuracy. Weather forecasts are derived from the NOAA NDFD. Like all things, this site belongs to Jesus Christ... He just trusts us to maintain it. If you have any questions or comments email webmaster@weatherforyou.com

Copyright © 2016, WeatherForYou.com LLC. All rights reserved.